Location: Home
(42.5358°N, 72.7383°W)
Time: 14:30:18
(UTC-05:00)

deb Explorer IX - Pass Details

Date: 07 December 2021
Orbit: 544 x 1082 km, 38.8° (Epoch: 16 January)

Event Time Altitude Azimuth Distance (km) Brightness Sun altitude
Rises 12:23:01 0° 272° (W) 2,914 ? 24.1°
Reaches altitude 10° 12:25:34 10° 263° (W) 1,937 ? 24.0°
Maximum altitude 12:29:35 35° 197° (SSW) 912 ? 23.9°
Drops below altitude 10° 12:33:20 10° 131° (SE) 1,807 ? 23.7°
Sets 12:35:39 0° 122° (ESE) 2,689 ? 23.6°
